Location: ?????
(55.6500°N, 37.2500°E)
Time: 01:14:11
(UTC+00:00)

Cosmos 1452 Rocket - Pass Details

Date: 19 May 2025
Orbit: 764 x 770 km, 74.1° (Epoch: 13 June)

Event Time Altitude Azimuth Distance (km) Brightness Sun altitude
Rises 22:20:04 0° 331° (NNW) 3,244 7.6 -13.6°
Reaches altitude 10° 22:22:27 10° 332° (NNW) 2,315 6.7 -13.5°
Maximum altitude 22:27:44 88° 60° (ENE) 775 3.5 -13.3°
Drops below altitude 10° 22:32:58 10° 153° (SSE) 2,303 5.5 -13.1°
Enters shadow 22:33:07 - 153° (SSE) 2,361 5.6 -13.1°
